Regional Weather Roundup
Issued by NWS

Home | Current Version | Previous Version | Text Only | Print | Product List | Glossary Off
Versions: 1 2 3 4 5 6 7 8 9 10 11 12 13 14 15 16 17 18 19 20 21 22 23 24 25 26 27 28 29 30 31 32 33 34 35 36 37 38 39 40 41 42 43 44 45 46 47 48 49 50

000
ASUS45 KTFX 211004
RWRMT
MONTANA HOURLY WEATHER ROUNDUP
NATIONAL WEATHER SERVICE GREAT FALLS MT
304 AM MST SUN DEC 21 2014

NOTE: "FAIR" INDICATES FEW OR NO CLOUDS BELOW 12000 FEET WITH NO
SIGNIFICANT WEATHER AND/OR OBSTRUCTIONS TO VISIBILITY.

* THESE STATIONS ARE NOT UNDER NWS QUALITY CONTROL. THEY DO NOT
   REPORT WEATHER SUCH AS PRECIPITATION OR FOG.

MTZ001>007-043-211100-
WEST OF THE DIVIDE
CITY           SKY/WX    TMP DP  RH WIND       PRES   REMARKS
KALISPELL      LGT RAIN  36  36 100 S9        29.46F WCI  29
MISSOULA       LGT RAIN  37  34  89 SE12      29.55F WCI  29
BUTTE          CLOUDY    34  27  76 E3        29.60F
MULLAN PASS    LGT SNOW  30  28  92 VRB5      29.44F VSB 3/4  WCI  25
* ESSEX        N/A       32  31  96 N/A        N/A
* LINCOLN      N/A       32  31  96 NW3        N/A
* LOOKOUT PASS N/A       32  32 100 N/A        N/A
* POLSON       N/A       35  35 100 S2G9       N/A
* RONAN APT    PTCLDY    39  37  93 SE7        N/A   WCI  34
* SEELEY LAKE  N/A       28  27  96 N1         N/A
* THOMP F APT  MOCLDY    28  27  96 S5G11      N/A   WCI  22
$$

MTZ008-052>055-211100-
SOUTHWEST MONTANA
CITY           SKY/WX    TMP DP  RH WIND       PRES   REMARKS
BOZEMAN        CLOUDY    34  28  79 E6        29.57F WCI  29
DILLON         MOCLDY    34  28  79 S6        29.64S WCI  29
* W YELLOWSTON CLOUDY    29  27  92 SW6G15     N/A   WCI  23
* THREE FORKS  CLOUDY    41  41 100 N/A        N/A
* BOULDER HILL N/A       33  27  79 SW12G17    N/A   WCI  24
* MONIDA PASS  N/A       27  27 100 SE19G25    N/A   WCI  14
* RAYNOLDS PAS N/A       29  11  47 SE13       N/A   WCI  19
* WHITEHALL    N/A       39  24  55 SW22G34    N/A   WCI  29
* WISE RIVER   N/A       31  30  96 W4         N/A
$$

MTZ009>010-012-014-046-048-049-054-211100-
EAST SLOPES AND CENTRAL MONTANA
CITY           SKY/WX    TMP DP  RH WIND       PRES   REMARKS
CUT BANK       CLOUDY    36  28  73 SE9       29.33F WCI  29
GREAT FALLS    CLOUDY    45  28  51 S22G30    29.39F
HELENA         CLOUDY    34  28  79 CALM      29.50F
* DEARBORN     N/A       45  29  54 SW11G20    N/A
* EAST GLACIER N/A       34  31  89 W28G45     N/A   WCI  21
* MONARCH      N/A       37  20  50 S16G25     N/A   WCI  28
* PENDROY      N/A       41  30  65 W20G27     N/A
* ROGERS PASS  N/A       32  30  92 SE22G31    N/A   WCI  19
$$

MTZ011-013-016-021-035-040-045-047-050-051-211100-
NORTH CENTRAL MONTANA
CITY           SKY/WX    TMP DP  RH WIND       PRES   REMARKS
HAVRE          MOCLDY    21  19  92 E6        29.39F WCI  13
LEWISTOWN      MOCLDY    41  27  58 SW21      29.46F
* N BAR RANCH  MOCLDY    37  23  57 SW10      29.47F WCI  30
* CHESTER      N/A       20  17  88 N3         N/A
* DENTON       N/A       30  23  75 N/A        N/A
* GEYSER       N/A       42  25  51 SW10G21    N/A
* JUDITH GAP   N/A       30  24  78 S13G19     N/A   WCI  20
* LOMA         N/A       32  25  75 NE8        N/A   WCI  25
$$

MTZ017>020-022>027-061-062-211100-
NORTHEAST MONTANA
CITY           SKY/WX    TMP DP  RH WIND       PRES   REMARKS
GLASGOW        CLEAR     23  18  81 E14       29.50F WCI  10
GLENDIVE       CLEAR     25  21  85 S9        29.59F WCI  16
JORDAN         PTCLDY    18  16  92 E3        29.51F
SIDNEY         CLEAR     21  18  88 S7        29.61F WCI  12
WOLF POINT     CLEAR     18  16  92 NE5       29.56F WCI  11
* BEAVER HILL  N/A       32  24  72 S13        N/A   WCI  22
* CIRCLE       N/A       30  25  82 SW2        N/A
* LINDSAY DVD  N/A       25  21  85 NE2        N/A
* SACO         N/A       20  18  92 NE3        N/A
$$

MTZ028>042-056>058-211100-
SOUTHCENTRAL AND SOUTHEAST MONTANA
CITY           SKY/WX    TMP DP  RH WIND       PRES   REMARKS
BAKER          CLEAR     21  19  92 E6        29.60F WCI  13
BILLINGS       CLOUDY    34  21  59 SW8       29.52F WCI  27
LIVINGSTON     CLOUDY    45  25  45 SW30G40   29.52F
MILES CITY     PTCLDY    25  21  85 S10       29.56F WCI  15
* LAUREL APT   MOCLDY    36  18  48 N/A        N/A
* ROUNDUP APT  MOCLDY    34  19  54 N/A        N/A
* ALZADA       N/A       29  23  78 E3         N/A
* HYSHAM       N/A       38  18  44 SW4G9      N/A
* LAME DEER    N/A       34  20  57 SW6        N/A   WCI  29
* REED POINT   N/A       26  24  92 W2         N/A
* ROSCOE HILL  N/A       37  12  36 NW2G9      N/A
$$

REGIONAL REPORTS...DAKOTAS
CITY           SKY/WX    TMP DP  RH WIND       PRES   REMARKS
WILLISTON      PTCLDY    18  16  92 CALM      29.59F
DICKINSON      MOCLDY    27  21  78 S8        29.60F WCI  19
BEACH          CLEAR     25  25 100 S8        29.59F WCI  16
CROSBY         CLEAR     18  18 100 S9        29.60F WCI   7
WATFORD CITY   CLEAR     19  18  96 SE3       29.58F
BISMARCK       CLEAR     12   9  88 E5        29.70F WCI   4
GRAND FORKS    CLOUDY    30  28  92 S12       29.77F WCI  20
FARGO          FOG       32  28  85 S12       29.80F WCI  23
BUFFALO SD     CLEAR     30  21  69 S6        29.57F WCI  24
RAPID CITY     CLEAR     21  18  88 CALM      29.66F
$$

REGIONAL REPORTS...WYOMING/IDAHO/WASHINGTON
CITY           SKY/WX    TMP DP  RH WIND       PRES   REMARKS
GILLETTE       PTCLDY    34  21  59 N/A       29.61F
SHERIDAN       CLOUDY    23  16  74 CALM      29.56F
CODY           CLOUDY    41  27  58 SW14      29.61S
YELLOWSTONE LA CLOUDY    27  23  85 VRB6      29.75F WCI  20
SALMON         CLOUDY    34  30  85 N5        29.69F WCI  29
MULLAN PASS    LGT SNOW  30  28  92 VRB5      29.44S VSB 3/4  WCI  25
SAND POINT     RAIN      36  36 100 CALM      29.46F VSB 2
SPOKANE        CLOUDY    46  46 100 SW23G36   29.45R

$$




USA.gov is the U.S. government's official web portal to all federal, state and local government web resources and services.